Location: Del Amo
(33.8464°N, 118.2104°W)
Time: 01:15:43
(UTC+00:00)

SR - Pass Details

Date: 22 September 2024
Orbit: 578 x 855 km, 66.7° (Epoch: 06 October)

Event Time Altitude Azimuth Distance (km) Brightness Sun altitude
Rises 18:48:46 0° 207° (SSW) 2,829 ? 53.6°
Reaches altitude 10° 18:51:02 10° 208° (SSW) 1,908 ? 53.7°
Maximum altitude 18:55:17 81° 296° (WNW) 590 ? 54.1°
Drops below altitude 10° 18:59:30 10° 24° (NNE) 1,894 ? 54.4°
Sets 19:01:44 0° 25° (NNE) 2,807 ? 54.5°
